﻿測定場所 (Monitoring sites),日付 (Measurement date),時間 (Measurement time),線量率 最大値 (max) μGy/h,線量率 最小値 (min) μGy/h,線量率 平均値 (average) μGy/h,
足立 (Adachi),2015-04-19,23:01～24:00,0.0424,0.0368,0.0390,
足立 (Adachi),2015-04-19,22:01～23:00,0.0425,0.0366,0.0393,
足立 (Adachi),2015-04-19,21:01～22:00,0.0420,0.0367,0.0393,
足立 (Adachi),2015-04-19,20:01～21:00,0.0430,0.0359,0.0394,
足立 (Adachi),2015-04-19,19:01～20:00,0.0431,0.0367,0.0391,
足立 (Adachi),2015-04-19,18:01～19:00,0.0417,0.0372,0.0395,
足立 (Adachi),2015-04-19,17:01～18:00,0.0419,0.0368,0.0395,
足立 (Adachi),2015-04-19,16:01～17:00,0.0431,0.0371,0.0399,
足立 (Adachi),2015-04-19,15:01～16:00,0.0425,0.0370,0.0401,
足立 (Adachi),2015-04-19,14:01～15:00,0.0443,0.0382,0.0408,
足立 (Adachi),2015-04-19,13:01～14:00,0.0435,0.0378,0.0407,
足立 (Adachi),2015-04-19,12:01～13:00,0.0437,0.0366,0.0399,
足立 (Adachi),2015-04-19,11:01～12:00,0.0431,0.0363,0.0399,
足立 (Adachi),2015-04-19,10:01～11:00,0.0432,0.0376,0.0401,
足立 (Adachi),2015-04-19,09:01～10:00,0.0428,0.0370,0.0400,
足立 (Adachi),2015-04-19,08:01～09:00,0.0425,0.0374,0.0402,
足立 (Adachi),2015-04-19,07:01～08:00,0.0434,0.0369,0.0397,
足立 (Adachi),2015-04-19,06:01～07:00,0.0440,0.0370,0.0397,
足立 (Adachi),2015-04-19,05:01～06:00,0.0431,0.0369,0.0403,
足立 (Adachi),2015-04-19,04:01～05:00,0.0433,0.0374,0.0396,
足立 (Adachi),2015-04-19,03:01～04:00,0.0440,0.0361,0.0398,
足立 (Adachi),2015-04-19,02:01～03:00,0.0431,0.0367,0.0395,
足立 (Adachi),2015-04-19,01:01～02:00,0.0416,0.0357,0.0391,
足立 (Adachi),2015-04-19,00:01～01:00,0.0425,0.0370,0.0392,
足立 (Adachi),2015-04-18,23:01～24:00,0.0424,0.0363,0.0392,
足立 (Adachi),2015-04-18,22:01～23:00,0.0420,0.0367,0.0394,
足立 (Adachi),2015-04-18,21:01～22:00,0.0418,0.0363,0.0387,
足立 (Adachi),2015-04-18,20:01～21:00,0.0415,0.0365,0.0388,
足立 (Adachi),2015-04-18,19:01～20:00,0.0414,0.0360,0.0387,
足立 (Adachi),2015-04-18,18:01～19:00,0.0425,0.0363,0.0393,
足立 (Adachi),2015-04-18,17:01～18:00,0.0405,0.0363,0.0385,
足立 (Adachi),2015-04-18,16:01～17:00,0.0422,0.0363,0.0387,
足立 (Adachi),2015-04-18,15:01～16:00,0.0427,0.0361,0.0386,
足立 (Adachi),2015-04-18,14:01～15:00,0.0419,0.0364,0.0388,
足立 (Adachi),2015-04-18,13:01～14:00,0.0415,0.0362,0.0386,
足立 (Adachi),2015-04-18,12:01～13:00,0.0441,0.0362,0.0385,
足立 (Adachi),2015-04-18,11:01～12:00,0.0414,0.0356,0.0383,
足立 (Adachi),2015-04-18,10:01～11:00,0.0410,0.0358,0.0380,
足立 (Adachi),2015-04-18,09:01～10:00,0.0411,0.0358,0.0384,
足立 (Adachi),2015-04-18,08:01～09:00,0.0411,0.0361,0.0386,
足立 (Adachi),2015-04-18,07:01～08:00,0.0418,0.0362,0.0384,
足立 (Adachi),2015-04-18,06:01～07:00,0.0420,0.0366,0.0385,
足立 (Adachi),2015-04-18,05:01～06:00,0.0412,0.0348,0.0382,
足立 (Adachi),2015-04-18,04:01～05:00,0.0417,0.0361,0.0383,
足立 (Adachi),2015-04-18,03:01～04:00,0.0412,0.0355,0.0382,
足立 (Adachi),2015-04-18,02:01～03:00,0.0410,0.0360,0.0380,
足立 (Adachi),2015-04-18,01:01～02:00,0.0415,0.0358,0.0385,
足立 (Adachi),2015-04-18,00:01～01:00,0.0411,0.0360,0.0381,
足立 (Adachi),2015-04-17,23:01～24:00,0.0410,0.0357,0.0383,
足立 (Adachi),2015-04-17,22:01～23:00,0.0415,0.0363,0.0387,
足立 (Adachi),2015-04-17,21:01～22:00,0.0418,0.0363,0.0389,
足立 (Adachi),2015-04-17,20:01～21:00,0.0433,0.0365,0.0394,
足立 (Adachi),2015-04-17,19:01～20:00,0.0449,0.0373,0.0409,
足立 (Adachi),2015-04-17,18:01～19:00,0.0432,0.0362,0.0391,
足立 (Adachi),2015-04-17,17:01～18:00,0.0448,0.0377,0.0413,
足立 (Adachi),2015-04-17,16:01～17:00,0.0458,0.0380,0.0416,
足立 (Adachi),2015-04-17,15:01～16:00,0.0540,0.0435,0.0485,
足立 (Adachi),2015-04-17,14:01～15:00,0.0590,0.0452,0.0502,
足立 (Adachi),2015-04-17,13:01～14:00,0.0466,0.0365,0.0393,
足立 (Adachi),2015-04-17,12:01～13:00,0.0415,0.0363,0.0389,
足立 (Adachi),2015-04-17,11:01～12:00,0.0413,0.0368,0.0388,
足立 (Adachi),2015-04-17,10:01～11:00,0.0419,0.0365,0.0389,
足立 (Adachi),2015-04-17,09:01～10:00,0.0431,0.0370,0.0397,
足立 (Adachi),2015-04-17,08:01～09:00,0.0423,0.0362,0.0396,
足立 (Adachi),2015-04-17,07:01～08:00,0.0427,0.0363,0.0395,
足立 (Adachi),2015-04-17,06:01～07:00,0.0443,0.0378,0.0399,
足立 (Adachi),2015-04-17,05:01～06:00,0.0421,0.0377,0.0400,
足立 (Adachi),2015-04-17,04:01～05:00,0.0429,0.0364,0.0397,
足立 (Adachi),2015-04-17,03:01～04:00,0.0425,0.0373,0.0397,
足立 (Adachi),2015-04-17,02:01～03:00,0.0438,0.0362,0.0395,
足立 (Adachi),2015-04-17,01:01～02:00,0.0424,0.0361,0.0396,
足立 (Adachi),2015-04-17,00:01～01:00,0.0449,0.0368,0.0397,
足立 (Adachi),2015-04-16,23:01～24:00,0.0430,0.0358,0.0395,
足立 (Adachi),2015-04-16,22:01～23:00,0.0425,0.0366,0.0392,
足立 (Adachi),2015-04-16,21:01～22:00,0.0422,0.0366,0.0393,
足立 (Adachi),2015-04-16,20:01～21:00,0.0419,0.0361,0.0392,
足立 (Adachi),2015-04-16,19:01～20:00,0.0424,0.0364,0.0391,
足立 (Adachi),2015-04-16,18:01～19:00,0.0425,0.0357,0.0392,
足立 (Adachi),2015-04-16,17:01～18:00,0.0427,0.0365,0.0386,
足立 (Adachi),2015-04-16,16:01～17:00,0.0419,0.0355,0.0386,
足立 (Adachi),2015-04-16,15:01～16:00,0.0414,0.0363,0.0392,
足立 (Adachi),2015-04-16,14:01～15:00,0.0424,0.0366,0.0387,
足立 (Adachi),2015-04-16,13:01～14:00,0.0415,0.0365,0.0387,
足立 (Adachi),2015-04-16,12:01～13:00,0.0423,0.0368,0.0391,
足立 (Adachi),2015-04-16,11:01～12:00,0.0418,0.0364,0.0388,
足立 (Adachi),2015-04-16,10:01～11:00,0.0431,0.0367,0.0392,
足立 (Adachi),2015-04-16,09:01～10:00,0.0421,0.0364,0.0390,
足立 (Adachi),2015-04-16,08:01～09:00,0.0423,0.0358,0.0390,
足立 (Adachi),2015-04-16,07:01～08:00,0.0414,0.0364,0.0386,
足立 (Adachi),2015-04-16,06:01～07:00,0.0422,0.0359,0.0387,
足立 (Adachi),2015-04-16,05:01～06:00,0.0418,0.0364,0.0386,
足立 (Adachi),2015-04-16,04:01～05:00,0.0415,0.0358,0.0382,
足立 (Adachi),2015-04-16,03:01～04:00,0.0407,0.0362,0.0383,
足立 (Adachi),2015-04-16,02:01～03:00,0.0424,0.0362,0.0381,
足立 (Adachi),2015-04-16,01:01～02:00,0.0411,0.0362,0.0385,
足立 (Adachi),2015-04-16,00:01～01:00,0.0419,0.0364,0.0387,
足立 (Adachi),2015-04-15,23:01～24:00,0.0407,0.0361,0.0386,
足立 (Adachi),2015-04-15,22:01～23:00,0.0425,0.0366,0.0388,
足立 (Adachi),2015-04-15,21:01～22:00,0.0426,0.0359,0.0389,
足立 (Adachi),2015-04-15,20:01～21:00,0.0428,0.0366,0.0393,
足立 (Adachi),2015-04-15,19:01～20:00,0.0441,0.0362,0.0400,
足立 (Adachi),2015-04-15,18:01～19:00,0.0463,0.0388,0.0420,
足立 (Adachi),2015-04-15,17:01～18:00,0.0457,0.0360,0.0389,
足立 (Adachi),2015-04-15,16:01～17:00,0.0420,0.0361,0.0383,
足立 (Adachi),2015-04-15,15:01～16:00,0.0412,0.0361,0.0381,
足立 (Adachi),2015-04-15,14:01～15:00,0.0422,0.0361,0.0386,
足立 (Adachi),2015-04-15,13:01～14:00,0.0418,0.0359,0.0380,
足立 (Adachi),2015-04-15,12:01～13:00,0.0412,0.0357,0.0382,
足立 (Adachi),2015-04-15,11:01～12:00,0.0409,0.0355,0.0379,
足立 (Adachi),2015-04-15,10:01～11:00,0.0407,0.0358,0.0379,
足立 (Adachi),2015-04-15,09:01～10:00,0.0416,0.0354,0.0380,
足立 (Adachi),2015-04-15,08:01～09:00,0.0410,0.0355,0.0376,
足立 (Adachi),2015-04-15,07:01～08:00,0.0403,0.0357,0.0373,
足立 (Adachi),2015-04-15,06:01～07:00,0.0402,0.0355,0.0376,
足立 (Adachi),2015-04-15,05:01～06:00,0.0410,0.0364,0.0387,
足立 (Adachi),2015-04-15,04:01～05:00,0.0446,0.0372,0.0415,
足立 (Adachi),2015-04-15,03:01～04:00,0.0459,0.0390,0.0422,
足立 (Adachi),2015-04-15,02:01～03:00,0.0445,0.0375,0.0411,
足立 (Adachi),2015-04-15,01:01～02:00,0.0480,0.0409,0.0447,
足立 (Adachi),2015-04-15,00:01～01:00,0.0508,0.0424,0.0453,
足立 (Adachi),2015-04-14,23:01～24:00,0.0493,0.0424,0.0458,
足立 (Adachi),2015-04-14,22:01～23:00,0.0448,0.0375,0.0411,
足立 (Adachi),2015-04-14,21:01～22:00,0.0466,0.0394,0.0433,
足立 (Adachi),2015-04-14,20:01～21:00,0.0472,0.0405,0.0436,
足立 (Adachi),2015-04-14,19:01～20:00,0.0475,0.0417,0.0451,
足立 (Adachi),2015-04-14,18:01～19:00,0.0514,0.0437,0.0468,
足立 (Adachi),2015-04-14,17:01～18:00,0.0474,0.0367,0.0411,
足立 (Adachi),2015-04-14,16:01～17:00,0.0429,0.0366,0.0403,
足立 (Adachi),2015-04-14,15:01～16:00,0.0421,0.0363,0.0393,
足立 (Adachi),2015-04-14,14:01～15:00,0.0425,0.0364,0.0394,
足立 (Adachi),2015-04-14,13:01～14:00,0.0422,0.0361,0.0395,
足立 (Adachi),2015-04-14,12:01～13:00,0.0439,0.0373,0.0401,
足立 (Adachi),2015-04-14,11:01～12:00,0.0454,0.0380,0.0414,
足立 (Adachi),2015-04-14,10:01～11:00,0.0455,0.0400,0.0424,
足立 (Adachi),2015-04-14,09:01～10:00,0.0444,0.0375,0.0412,
足立 (Adachi),2015-04-14,08:01～09:00,0.0439,0.0355,0.0398,
足立 (Adachi),2015-04-14,07:01～08:00,0.0404,0.0352,0.0376,
足立 (Adachi),2015-04-14,06:01～07:00,0.0407,0.0355,0.0378,
足立 (Adachi),2015-04-14,05:01～06:00,0.0407,0.0361,0.0385,
足立 (Adachi),2015-04-14,04:01～05:00,0.0414,0.0361,0.0383,
足立 (Adachi),2015-04-14,03:01～04:00,0.0429,0.0373,0.0400,
足立 (Adachi),2015-04-14,02:01～03:00,0.0454,0.0385,0.0411,
足立 (Adachi),2015-04-14,01:01～02:00,0.0455,0.0395,0.0420,
足立 (Adachi),2015-04-14,00:01～01:00,0.0463,0.0385,0.0423,
足立 (Adachi),2015-04-13,23:01～24:00,0.0437,0.0381,0.0412,
足立 (Adachi),2015-04-13,22:01～23:00,0.0468,0.0399,0.0429,
足立 (Adachi),2015-04-13,21:01～22:00,0.0468,0.0414,0.0440,
足立 (Adachi),2015-04-13,20:01～21:00,0.0488,0.0413,0.0447,
足立 (Adachi),2015-04-13,19:01～20:00,0.0483,0.0424,0.0453,
足立 (Adachi),2015-04-13,18:01～19:00,0.0475,0.0410,0.0445,
足立 (Adachi),2015-04-13,17:01～18:00,0.0466,0.0390,0.0429,
足立 (Adachi),2015-04-13,16:01～17:00,0.0460,0.0395,0.0427,
足立 (Adachi),2015-04-13,15:01～16:00,0.0458,0.0401,0.0433,
足立 (Adachi),2015-04-13,14:01～15:00,0.0454,0.0399,0.0426,
足立 (Adachi),2015-04-13,13:01～14:00,0.0471,0.0399,0.0435,
足立 (Adachi),2015-04-13,12:01～13:00,0.0462,0.0393,0.0425,
足立 (Adachi),2015-04-13,11:01～12:00,0.0446,0.0401,0.0422,
足立 (Adachi),2015-04-13,10:01～11:00,0.0440,0.0386,0.0421,
足立 (Adachi),2015-04-13,09:01～10:00,0.0438,0.0371,0.0400,
足立 (Adachi),2015-04-13,08:01～09:00,0.0413,0.0360,0.0388,
足立 (Adachi),2015-04-13,07:01～08:00,0.0418,0.0365,0.0389,
足立 (Adachi),2015-04-13,06:01～07:00,0.0409,0.0366,0.0389,
足立 (Adachi),2015-04-13,05:01～06:00,0.0420,0.0359,0.0387,
足立 (Adachi),2015-04-13,04:01～05:00,0.0423,0.0361,0.0387,
足立 (Adachi),2015-04-13,03:01～04:00,0.0418,0.0362,0.0388,
足立 (Adachi),2015-04-13,02:01～03:00,0.0425,0.0366,0.0389,
足立 (Adachi),2015-04-13,01:01～02:00,0.0425,0.0366,0.0390,
足立 (Adachi),2015-04-13,00:01～01:00,0.0424,0.0365,0.0393,
